Location: Kra?nica
(53.4833°N, 14.6167°E)
Time: 21:12:42
(UTC+00:00)

SL-16 R/B - Pass Details

Date: 23 May 2024
Orbit: 985 x 1007 km, 99.7° (Epoch: 20 June)

Event Time Altitude Azimuth Distance (km) Brightness Sun altitude
Rises 00:05:50 0° 127° (SE) 3,729 5.3 -14.5°
Reaches altitude 10° 00:08:30 10° 119° (ESE) 2,783 4.8 -14.3°
Maximum altitude 00:14:04 35° 56° (NE) 1,575 4.1 -14.1°
Drops below altitude 10° 00:19:38 10° 354° (N) 2,795 6.0 -13.8°
Sets 00:22:19 0° 346° (NNW) 3,747 6.5 -13.7°
